Regional Weather Roundup
Issued by NWS Newport/Morehead, NC

Current Version | Previous Version | Text Only | Print | Product List | Glossary On
Versions: 1 2 3 4 5 6 7 8 9 10 11 12 13 14 15 16 17 18 19 20 21 22 23 24 25 26 27 28 29 30 31 32 33 34 35 36 37 38 39 40 41 42 43 44 45 46 47 48 49 50
000 ASUS42 KMHX 260110 RWRMHX WEATHER ROUNDUP FOR EASTERN NORTH CAROLINA NATIONAL WEATHER SERVICE NEWPORT/MOREHEAD CITY NC 800 PM EST SUN JAN 25 2015 NOTE: "FAIR" INDICATES FEW OR NO CLOUDS BELOW 12,000 FEET WITH NO SIGNIFICANT WEATHER AND/OR OBSTRUCTIONS TO VISIBILITY NCZ015>017-031-032-045>047-102-103-260200- NORTH COAST CITY SKY/WX TMP DP RH WIND PRES REMARKS EDENTON CLEAR 42 35 77 S7 29.91R ELIZABETH CITY CLEAR 41 33 73 S8 29.91R KITTY HAWK CLEAR 41 32 71 SE5 29.90S MANTEO CLEAR 43 34 70 SE5 29.91S $$ NCZ045>047-081-094-103-104-260200- CENTRAL COAST CITY SKY/WX TMP DP RH WIND PRES REMARKS FRISCO CLEAR 50 39 66 S8 29.90F SWANQUARTER N/A 43 N/A N/A SE6 29.85 $$ NCZ095-097-098-100-101-260200- SOUTHERN COAST CITY SKY/WX TMP DP RH WIND PRES REMARKS BEAUFORT CLEAR 47 40 76 S6 29.90S CEDAR ISLAND N/A 43 N/A N/A SE3 29.94 JACKSONVILLE CLEAR 43 36 76 CALM 29.88S PINEY ISLAND N/A N/A N/A N/A MISG 29.90S WILMINGTON CLEAR 43 36 76 CALM 29.88F $$ NCZ011>013-027>030-043-044-078>080-089-090>093-098-260200- COASTAL PLAIN CITY SKY/WX TMP DP RH WIND PRES REMARKS AHOSKIE CLEAR 35 33 93 CALM 29.89R CLINTON CLEAR 45 37 75 CALM 29.88S ELIZABETHTOWN CLEAR 44 34 67 S3 29.88R GOLDSBORO CLEAR 45 44 93 SE5 29.86R GREENVILLE CLEAR 45 36 70 S6 29.91R HAVELOCK CLEAR 40 35 83 CALM 29.90R KENANSVILLE CLEAR 44 35 71 CALM 29.89R KINSTON CLEAR 43 36 75 S6 29.89S NEW BERN CLEAR 39 33 79 CALM 29.90S RICHLANDS CLEAR 41 34 75 CALM 29.89S ROCKY MOUNT CLEAR 39 35 86 CALM 29.87R WASHINGTON CLEAR 42 36 77 SE3 29.90S WHITEVILLE CLEAR 41 35 79 CALM 29.87S $$ AMZ130-135-150-152-154-156-158-170-250-252-270-ANZ085-086-088-633-658-670-260200- MARINE OBSERVATIONS STATION/POSITION TIME TEMP WIND PRES WAVE SWELL AIR SEA DIR/SP/G HT/PER HT/PER (UTC) (F) (DEG/KT/KT) (MB) (FT/S) (FT/S) CHESAPEAKE LIGHT 0000 45 170/ 18/ 19 1012.6 64 E VA BEACH 0100 48 52 180/ 8/ 10 1012.7 3/10 3/10 DUCK 0100 44 44 150/ 11/ 12 1011.7 2 E DUCK 0100 43 N/A 2/ 8 2/11 10 NE DUCK 0100 45 N/A 3/ 9 2/11 OREGON INLET 0100 42 46 130/ 4/ 5 1012.8 13E OREGON INLT 0100 45 N/A 4/ 8 2/11 HATTERAS CG 0100 51 53 190/ 5/ 9 1012.7 DIAMOND BUOY 0100 54 69 210/ 10/ 14 1012.5 3/ 9 3/ 9 17 S OCRACOKE NOT AVBL CAPE LOOKOUT 0000 50 200/ 5/ 6 1012.5 BEAUFORT LAB 0100 50 51 210/ 5/ 7 1011.4 27 SE WRIGHTSVLE NOT AVBL 5 SE WRIGHTSVLE 0000 52 51 160/ 8/ 10 1012.0 225 S CAPE HAT 0044 66 72 230/ 14/ 17 1014.2 5/ 8 5/ 8 41 SE CHARLESTON 0100 61 69 220/ 17/ 23 1011.6 3/ 4 2/10 $$

USA.gov is the U.S. government's official web portal to all federal, state and local government web resources and services.